Regional Weather Roundup
Issued by NWS

Home | Current Version | Previous Version | Text Only | Print | Product List | Glossary Off
Versions: 1 2 3 4 5 6 7 8 9 10 11 12 13 14 15 16 17 18 19 20 21 22 23 24 25 26 27 28 29 30 31 32 33 34 35 36 37 38 39 40 41 42 43 44 45 46 47 48 49 50

000
ASUS43 KLOT 290721
RWRIL

ILLINOIS REGIONAL WEATHER ROUNDUP
NATIONAL WEATHER SERVICE CHICAGO/ROMEOVILLE IL
200 AM CDT FRI MAY 29 2015

NOTE: "FAIR" INDICATES FEW OR NO CLOUDS BELOW 12,000 FEET WITH NO
SIGNIFICANT WEATHER AND/OR OBSTRUCTIONS TO VISIBILITY.

* THESE STATIONS ARE NOT UNDER NWS QUALITY CONTROL. THEY ALSO MAY NOT
  REPORT WEATHER SUCH AS PRECIPITATION OR FOG.

ILZ001-002-007-009-015-016-024-290800-
NORTHWEST ILLINOIS

CITY           SKY/WX    TMP DP  RH WIND       PRES   REMARKS
MOLINE         CLOUDY    67  60  78 CALM      30.00F
STERLING*      CLOUDY    68  61  77 CALM      30.02F
SAVANNA*       CLOUDY    68  56  65 CALM      30.01S
$$

ILZ003-004-008-010-011-017-018-290800-
NORTH CENTRAL ILLINOIS

CITY           SKY/WX    TMP DP  RH WIND       PRES   REMARKS
ROCKFORD       CLOUDY    66  56  70 S6        30.04S
FREEPORT*      CLOUDY    64  56  76 S3        30.04S
ROCHELLE*      MOCLDY    64  56  76 SE7       30.04S
DE KALB*       MOCLDY    63  55  76 S6        30.05S
PERU*          MOCLDY    68  60  74 SE5       30.04S
$$

ILZ005-006-012>014-019>023-290800-
NORTHEAST ILLINOIS

CITY           SKY/WX    TMP DP  RH WIND       PRES   REMARKS
CHICAGO-OHARE  MOCLDY    64  57  78 S9        30.04F
CHICAGO-MIDWAY CLOUDY    73  58  59 S7        30.04F
AURORA         PTCLDY    66  55  67 SE7       30.04F
LANSING*       MOCLDY    70  57  63 S9        30.07F
JOLIET*        PTCLDY    70  60  71 SE3       30.05F
WAUKEGAN       PTCLDY    62  55  77 SE7       30.04F
DUPAGE AIRPORT PTCLDY    64  56  75 S6        30.04F
KANKAKEE*      PTCLDY    71  63  77 S6        30.07F
WHEELING       PTCLDY    63  55  75 CALM      30.05F
MORRIS*        PTCLDY    66  56  69 S3        30.03S
ROMEOVILLE*    PTCLDY    66  58  73 S8        30.05S
NORTHERLY ISL    N/A     63  57  81 E2          N/A
$$

LMZ740>746-290800-
SOUTHERN LAKE MICHIGAN

STATION/POSITION SKY/WX   TEMP    WIND        PRES    VSBY  WAVE
                          AIR SEA DIR/SP/G                  HT/PER
                          (F)     (DEG/KT/KT) (MB)    (MI)  (FT/S)
SOUTHERN BUOY              47 38  130/ 10/ 10 1018.8F         0
HARRISON CRIB              62     150/  6/  9   N/A
BURNHAM HARBOR             63     110/  2/  4   N/A
BURNS HARBOR               73     160/  8/ 12 1019.0S
MICHIGAN CITY              71     120/  9/ 12   N/A
MICHIGAN CITY 6N           64 55  170/  6/  8   N/A           1
ST. JOSEPH                 65 58  170/ 10/ 10   N/A           1
$$

ILZ025>027-034>036-040-047-049-050-058-095>099-290800-
WEST-CENTRAL ILLINOIS

CITY           SKY/WX    TMP DP  RH WIND       PRES   REMARKS
QUINCY         CLOUDY    68  64  87 SE6       30.00F
GALESBURG*     CLOUDY    67  63  86 CALM      30.01F
MACOMB*        CLOUDY    68  65  91 S9        30.03S
JACKSONVILLE*  MOCLDY    71  66  82 S7        30.02F
PITTSFIELD*    MOCLDY    69  65  88 S6        30.02F
$$

ILZ028>032-037-038-041>044-048-051>054-059>061-290800-
CENTRAL ILLINOIS

CITY           SKY/WX    TMP DP  RH WIND       PRES   REMARKS
PONTIAC        MOCLDY    69  63  82 SE7       30.05F
BLOOMINGTON    MOCLDY    69  65  87 S10       30.05F
DECATUR        PTCLDY    69  64  84 S5        30.06S
PEORIA         CLOUDY    72  64  76 S7        30.03S
LACON*         CLOUDY    68  62  82 CALM      30.03R
LINCOLN*       MOCLDY    70  65  83 S3        30.02F
SPRINGFIELD    MOCLDY    69  65  86 S6        30.04F
TAYLORVILLE    PTCLDY    64  64 100 CALM      30.05S
$$

ILZ033-039-045-046-055>057-062-063-290800-
EAST-CENTRAL ILLINOIS

CITY           SKY/WX    TMP DP  RH WIND       PRES   REMARKS
CHAMPAIGN      PTCLDY    72  64  76 S12       30.06F
DANVILLE*      CLEAR     69  64  83 SE3       30.07S
RANTOUL*       CLEAR     73  65  76 SE7       30.06F
PARIS*         CLEAR     70  65  83 S6        30.09F
$$

ILZ079-100>102-290800-
SOUTHWEST ILLINOIS

CITY           SKY/WX    TMP DP  RH WIND       PRES   REMARKS
ALTON          PTCLDY    67  67 100 SE3       30.04F
BELLEVILLE     PTCLDY    67  67  99 SE5       30.03F
CAHOKIA*       MOCLDY    71  65  81 S5        30.03F
SPARTA*        MOCLDY    69  64  85 SE5       30.05F
$$

ILZ064>066-069>071-074>076-080>082-084>086-088>090-092>094-290800-
SOUTH-CENTRAL ILLINOIS

CITY           SKY/WX    TMP DP  RH WIND       PRES   REMARKS
CARBONDALE     CLEAR     68  65  90 SW5       30.05F
CAIRO*         CLEAR     69  66  92 CALM      30.06S
EFFINGHAM*     CLEAR     67  63  85 E7        30.07F
MARION         CLEAR     70  66  88 S5        30.06F
MT. VERNON     CLEAR     68  61  77 CALM      30.06S
CENTRALIA*     CLEAR     67  64  89 CALM      30.05F
SALEM*         CLEAR     71  65  80 CALM      30.06F
METROPOLIS*    CLEAR     68  68 100 CALM      30.06S
$$

ILZ067-068-072-073-078-083-087-091-290800-
SOUTHEAST ILLINOIS

CITY           SKY/WX    TMP DP  RH WIND       PRES   REMARKS
LAWRENCEVILLE  CLEAR     68  64  87 SE5       30.08F
FLORA*         CLEAR     67  64  88 SE6       30.05F
FAIRFIELD*     CLEAR     71  65  82 SE5       30.05F
HARRISBURG*    CLEAR     67  66  97 CALM      30.06F
ROBINSON*      CLEAR     68  65  89 SE5       30.08F
CARMI*         CLEAR     68  63  83 CALM      30.06F
$$

ABBREVIATIONS USED IN REMARKS
   TC - TEMPERATURE IN CELSIUS
  WCI - WIND CHILL INDEX
   HX - HEAT INDEX
  VSB - VISIBILITY
$$




USA.gov is the U.S. government's official web portal to all federal, state and local government web resources and services.